Location: Huntsville
(41.2590°N, 111.7678°W)
Time: 00:02:11
(UTC+00:00)

ISS - Pass Details

Date: 02 December 2021
Orbit: 413 x 422 km, 51.6° (Epoch: 25 January)

Event Time Altitude Azimuth Distance (km) Brightness Sun altitude
Rises 01:17:19 0° 308° (NW) 2,386 0.6 -14.4°
Reaches altitude 10° 01:19:54 10° 329° (NNW) 1,516 -0.7 -14.9°
Maximum altitude 01:22:20 18° 14° (NNE) 1,118 -1.9 -15.3°
Enters shadow 01:22:29 18° 18° (NNE) 1,120 -1.9 -15.4°
